#timestamp,LO_Frequency,Hit,StdDev 
1540940415.6,286046999.8,N
1540940435.5,286047000.6,N
1540940455.3,286047002.5,N
1540940475.2,286047000.3,N
1540940495.9,286046999.9,N
1540940515.7,286047000.1,N
1540940535.6,286047000.2,N
1540940555.4,286047000.4,N
1540940575.3,286047002.3,N
1540940595.1,286046999.8,N
1540940596.0,286046999.8,N
1540940615.8,286047002.1,N
1540940635.7,286047002.8,N
1540940655.5,286047002.3,N
1540940675.3,286047002.3,N
1540940695.2,286047002.3,N
1540940715.4,286047001.6,N
1540940735.3,286047002.2,N
1540940755.1,286047000.1,N
1540940775.9,286047000.6,N
1540940795.7,286047001.0,N
1540940815.5,286047000.8,N
1540940835.4,286047000.5,N
1540940855.2,286047000.9,N
1540940875.1,286047000.0,N
1540940876.0,286047000.0,N
1540940895.8,286047001.0,N
1540940915.6,286046999.7,N
1540940935.5,286047000.9,N
1540940955.3,286047000.9,N
1540940975.2,286047002.7,N
1540940995.9,286047002.4,N
1540941015.7,286047002.2,N
1540941035.6,286046999.7,N
1540941055.4,286047002.8,N
1540941075.2,286047002.6,N
1540941095.1,286047002.8,N
1540941096.0,286047002.8,N
1540941115.8,286047002.2,N
1540941135.7,286047000.3,N
1540941155.5,286047002.2,N
1540941175.3,286046999.8,N
1540941195.2,286047002.6,N
1540941215.0,286046999.9,N
1540941215.9,286046999.9,N
1540941235.8,286047002.5,N
1540941255.6,286047005.8,Y
1540941275.4,286047013.2,P
1540941295.3,286047015.6,N
1540941315.1,286047013.1,N
1540941335.9,286047009.8,N
1540941355.7,286047008.0,N
1540941375.5,286047004.6,N
1540941395.4,286047003.0,N
1540941415.2,286047004.1,N
1540941435.0,286047003.5,N
1540941436.0,286047003.5,N
1540941455.8,286047003.7,N
1540941475.6,286047001.7,N
1540941495.5,286047002.7,N
1540941515.3,286047001.5,N
1540941535.1,286047001.8,N
1540941555.9,286047001.6,N
1540941575.7,286047002.0,N
1540941595.5,286047002.5,N
1540941615.4,286047002.1,N
1540941635.2,286046999.9,N
1540941655.1,286047000.8,N
1540941656.0,286047000.8,N
1540941675.8,286047000.5,N
1540941695.6,286047000.8,N
1540941715.5,286047000.7,N
1540941735.3,286047000.8,N
1540941755.1,286046998.2,N
1540941775.9,286047000.6,N
1540941795.7,286047000.2,N
1540941815.6,286047000.9,N
1540941835.4,286047000.0,N
1540941855.2,286047000.1,N
1540941875.1,286046998.6,N
1540941876.0,286046998.6,N
1540941895.8,286047000.7,N
1540941915.7,286046998.1,N
1540941935.5,286046998.2,N
1540941955.3,286047001.1,N
1540941975.2,286047000.9,N
1540941995.0,286047001.2,N
1540941995.9,286047001.2,N
1540942015.7,286047000.7,N
1540942035.6,286046998.2,N
1540942055.4,286047001.2,N
1540942075.3,286047001.2,N
1540942095.1,286046998.1,N
1540942115.8,286046999.1,N
1540942135.7,286046998.7,N
1540942155.5,286047000.9,N
1540942175.4,286047000.1,N
1540942195.2,286047002.5,N
1540942215.1,286047000.0,N
1540942216.0,286047000.0,N
1540942235.8,286047002.8,N
1540942255.6,286046999.8,N
1540942275.5,286046999.7,N
1540942295.3,286047002.5,N
1540942315.2,286047002.2,N
1540942335.9,286047002.8,N
1540942355.7,286047000.6,N
1540942375.6,286047000.0,N
1540942395.4,286047000.4,N
1540942415.2,286046999.8,N
1540942435.1,286047002.3,N
1540942436.0,286047002.3,N
1540942455.8,286046999.8,N
1540942475.7,286047002.6,N
1540942495.5,286047002.6,N
1540942515.3,286047001.6,N
1540942535.2,286047002.3,N
1540942555.0,286047002.3,N
1540942555.9,286047002.3,N
1540942575.8,286047002.0,N
1540942595.6,286047000.5,N
1540942615.4,286047001.1,N
1540942635.3,286046998.7,N
1540942655.1,286047001.2,N
1540942675.9,286047000.3,N
1540942695.7,286047000.8,N
1540942715.5,286047000.5,N
1540942735.4,286047001.0,N
1540942755.2,286046999.9,N
1540942775.0,286047000.0,N
1540942775.9,286047000.0,N
1540942795.8,286047000.4,N
1540942815.6,286047002.5,N
1540942835.5,286047002.1,N
1540942855.3,286047000.0,N
1540942875.1,286047002.4,N
1540942895.9,286047001.9,N
1540942915.7,286047002.7,N
1540942935.5,286047002.7,N
1540942955.4,286047011.9,Y
1540942975.2,286047001.1,P
1540942995.1,286046998.1,P
1540942996.0,286046998.1,N
1540943015.8,286047001.0,N
1540943035.6,286046998.6,N
1540943055.5,286046999.5,N
1540943075.3,286046998.9,N
1540943095.1,286046998.9,N
1540943115.9,286046998.8,N
1540943135.7,286047000.9,N
1540943155.6,286047000.8,N
1540943175.4,286047001.0,N
1540943195.2,286047000.6,N
1540943215.1,286047000.7,N
1540943216.0,286047000.7,N
1540943235.8,286047000.4,N
1540943255.7,286047000.5,N
1540943275.5,286047000.0,N
1540943295.3,286047000.9,N
1540943315.2,286046998.1,N
1540943335.0,286047000.5,N
1540943335.9,286047000.5,N
1540943355.8,286047000.9,N
1540943375.6,286047000.2,N
1540943395.4,286047002.6,N
1540943415.3,286047000.5,N
1540943435.1,286047000.0,N
1540943455.9,286047002.4,N
1540943475.7,286047002.7,N
1540943495.5,286047000.3,N
1540943515.4,286047000.5,N
1540943535.2,286046999.9,N
1540943555.0,286047000.3,N
1540943555.9,286047000.3,N
1540943575.8,286047001.2,N
1540943595.6,286047002.4,N
1540943615.5,286046999.9,N
1540943635.3,286046998.5,N
1540943655.1,286046998.2,N
1540943675.9,286046999.1,N
1540943695.7,286046998.3,N
1540943715.6,286046998.7,N
1540943735.4,286047000.8,N
1540943755.2,286047000.5,N
1540943775.1,286047000.2,N
1540943776.0,286047000.2,N
1540943795.8,286046999.9,N
1540943815.6,286046999.9,N
1540943835.5,286047002.8,N
1540943855.3,286047000.4,N
1540943875.2,286047000.8,N
1540943895.9,286046999.9,N
1540943915.7,286047000.0,N
1540943935.6,286047002.7,N
1540943955.4,286047002.6,N
1540943975.3,286046999.7,N
1540943995.1,286047000.0,N
1540943996.0,286047000.0,N
